This demonstration page uses our WeatherBlox Daily Observations layout. Learn more.

Hourly Observations for February 5, 2017

Temp ( °F °C ) Dew Point ( °F °C ) Humidity (%) Winds ( mph kmh ) Pressure ( in mb ) Visibility ( mi km ) Precip ( " mm )
12:15 am 00:15 Clear 29 -1.7 23 -5.1 78 78 N 7 11 30.09 1019 10 16.0934 0 0
12:35 am 00:35 Clear 28 -2 22 -5.4 78 78 NNE 7 11 30.09 1019 10 16.0934 0 0
12:55 am 00:55 Clear 28 -2 22 -5.6 77 77 N 5 7 30.12 1020 10 16.0934 0 0
1:15 am 01:15 Clear 27 -2.8 22 -5.8 80 80 NNE 7 11 30.12 1020 10 16.0934 0 0
1:35 am 01:35 Clear 28 -2.5 22 -5.5 80 80 NNE 8 13 30.09 1019 10 16.0934 0 0
1:55 am 01:55 Clear 27 -2.6 22 -5.8 79 79 N 6 9 30.12 1020 10 16.0934 0 0
2:15 am 02:15 Clear 26 -3.2 21 -6 81 81 N 8 13 30.12 1020 10 16.0934 0 0
2:35 am 02:35 Clear 27 -3 22 -5.7 82 82 N 8 13 30.12 1020 10 16.0934 0 0
2:55 am 02:55 Clear 26 -3.4 22 -5.8 84 84 NNE 8 13 30.09 1019 10 16.0934 0 0
3:15 am 03:15 Clear 26 -3.5 21 -6 83 83 Calm 30.15 1021 10 16.0934 0 0
3:35 am 03:35 Clear 24 -4.2 20 -6.5 84 84 NNE 5 7 30.15 1021 10 16.0934 0 0
3:55 am 03:55 Clear 23 -4.8 20 -6.5 88 88 NNE 5 7 30.15 1021 10 16.0934 0 0
4:15 am 04:15 Clear 24 -4.7 21 -6.1 90 90 N 5 7 30.18 1022 10 16.0934 0 0
4:35 am 04:35 Clear 23 -5 21 -6.2 91 91 Calm 30.18 1022 10 16.0934 0 0
4:55 am 04:55 Clear 23 -4.9 20 -6.5 89 89 Calm 30.15 1021 10 16.0934 0 0
5:15 am 05:15 Clear 22 -5.7 19 -7.1 90 90 Calm 30.18 1022 10 16.0934 0 0
5:35 am 05:35 Clear 22 -5.6 20 -6.7 92 92 Calm 30.18 1022 10 16.0934 0 0
5:55 am 05:55 Clear 22 -5.3 20 -6.4 92 92 Calm 30.18 1022 10 16.0934 0 0
6:15 am 06:15 Clear 21 -6.1 19 -7.3 91 91 Calm 30.18 1022 10 16.0934 0 0
6:35 am 06:35 Clear 21 -6.3 19 -7.5 91 91 NNE 5 7 30.21 1023 10 16.0934 0 0
6:55 am 06:55 Clear 22 -5.7 20 -6.7 93 93 N 3 6 30.18 1022 10 16.0934 0 0
7:15 am 07:15 Clear 22 -5.8 20 -6.8 93 93 NNE 3 6 30.21 1023 10 16.0934 0 0
7:35 am 07:35 Clear 22 -5.8 19 -7.2 90 90 NE 3 6 30.21 1023 10 16.0934 0 0
7:55 am 07:55 Sunny 22 -5.5 19 -7 89 89 Calm 30.21 1023 10 16.0934 0 0
8:15 am 08:15 Sunny 22 -5.5 20 -6.9 90 90 Calm 30.21 1023 10 16.0934 0 0
8:35 am 08:35 Sunny 23 -4.8 21 -6.1 91 91 Calm 30.21 1023 10 16.0934 0 0
8:55 am 08:55 Sunny 25 -3.8 22 -5.8 86 86 ENE 3 6 30.21 1023 10 16.0934 0 0
9:15 am 09:15 Sunny 26 -3.3 22 -5.3 86 86 E 3 6 30.21 1023 10 16.0934 0 0
9:35 am 09:35 Sunny 27 -2.7 23 -5.1 84 84 E 3 6 30.18 1022 10 16.0934 0 0
9:55 am 09:55 Sunny 28 -2.3 23 -5.1 81 81 Calm 30.18 1022 10 16.0934 0 0
10:15 am 10:15 Sunny 28 -2 22 -5.5 77 77 E 3 6 30.18 1022 10 16.0934 0 0
10:35 am 10:35 Sunny 29 -1.5 22 -5.7 73 73 SE 5 7 30.18 1022 10 16.0934 0 0
10:55 am 10:55 Sunny 31 -0.8 23 -5.2 72 72 SE 3 6 30.18 1022 10 16.0934 0 0
11:15 am 11:15 Sunny 32 0 23 -5 69 69 SE 5 7 30.18 1022 10 16.0934 0 0
11:35 am 11:35 Sunny 34 1 23 -5 65 65 SE 8 13 30.15 1021 10 16.0934 0 0
11:55 am 11:55 Sunny 35 1.4 23 -4.8 64 64 SSE 7 11 30.12 1020 10 16.0934 0 0
12:15 pm 12:15 Sunny 36 2.1 24 -4.5 62 62 SE 7 11 30.12 1020 10 16.0934 0 0
12:35 pm 12:35 Sunny 38 3.4 24 -4.3 57 57 SE 6 9 30.09 1019 10 16.0934 0 0
12:55 pm 12:55 Sunny 38 3.5 24 -4.3 57 57 S 5 7 30.09 1019 10 16.0934 0 0
1:15 pm 13:15 Sunny 40 4.5 25 -4 54 54 SE 6 9 30.06 1018 10 16.0934 0 0
1:35 pm 13:35 Sunny 41 4.8 25 -3.8 54 54 SSE 5 7 30.06 1018 10 16.0934 0 0
1:55 pm 13:55 Sunny 42 5.7 25 -3.7 51 51 S 6 9 30 1016 10 16.0934 0 0
2:15 pm 14:15 Sunny 43 6.1 26 -3.6 50 50 SSW 6 9 30 1016 10 16.0934 0 0
2:35 pm 14:35 Sunny 43 6.2 25 -3.7 49 49 SSE 3 6 30 1016 10 16.0934 0 0
2:55 pm 14:55 Sunny 44 6.6 26 -3.5 49 49 S 9 15 29.97 1015 10 16.0934 0 0
3:15 pm 15:15 Sunny 45 7.2 26 -3.4 47 47 S 7 11 29.97 1015 10 16.0934 0 0
3:35 pm 15:35 Sunny 46 7.5 26 -3.5 46 46 S 8 13 29.97 1015 10 16.0934 0 0
3:55 pm 15:55 Sunny 46 7.5 26 -3.5 46 46 SSE 8 13 29.97 1015 10 16.0934 0 0
4:15 pm 16:15 Sunny 46 7.6 25 -3.7 45 45 SSE 7 11 29.97 1015 10 16.0934 0 0
4:35 pm 16:35 Sunny 46 7.6 25 -3.9 44 44 SSE 3 6 29.97 1015 10 16.0934 0 0
4:55 pm 16:55 Sunny 46 7.5 26 -3.6 46 46 SSE 8 13 29.94 1014 10 16.0934 0 0
5:15 pm 17:15 Sunny 44 6.6 26 -3.5 49 49 SSE 8 13 29.94 1014 10 16.0934 0 0
5:35 pm 17:35 Sunny 42 5.7 26 -3.5 52 52 SSE 6 9 29.94 1014 10 16.0934 0 0
5:55 pm 17:55 Sunny 39 3.7 25 -3.7 59 59 SSE 8 13 30 1016 10 16.0934 0 0
6:15 pm 18:15 Clear 38 3.6 25 -3.8 59 59 SSE 3 6 30 1016 10 16.0934 0 0
6:35 pm 18:35 Clear 37 2.6 25 -4 62 62 S 3 6 30 1016 10 16.0934 0 0
6:55 pm 18:55 Clear 33 0.4 23 -5.1 67 67 S 5 7 30.03 1017 10 16.0934 0 0
7:15 pm 19:15 Clear 35 1.5 24 -4.4 65 65 SSE 6 9 30.03 1017 10 16.0934 0 0
7:35 pm 19:35 Clear 34 1.3 24 -4.5 66 66 S 8 13 30.03 1017 10 16.0934 0 0
7:55 pm 19:55 Clear 35 1.5 25 -4.1 67 67 S 7 11 30.03 1017 10 16.0934 0 0
8:15 pm 20:15 Clear 33 0.6 24 -4.5 69 69 S 7 11 30.03 1017 10 16.0934 0 0
8:35 pm 20:35 Clear 34 1.3 24 -4.2 67 67 S 10 17 30.03 1017 10 16.0934 0 0
8:55 pm 20:55 Clear 34 1.3 24 -4.3 67 67 S 10 17 30 1016 10 16.0934 0 0
9:15 pm 21:15 Clear 35 1.5 25 -3.9 68 68 S 8 13 30 1016 10 16.0934 0 0
9:35 pm 21:35 Clear 33 0.5 25 -4 72 72 S 8 13 30 1016 10 16.0934 0 0
9:55 pm 21:55 Clear 32 0 25 -4 75 75 S 7 11 30 1016 10 16.0934 0 0
10:15 pm 22:15 Clear 32 0.1 25 -4 74 74 S 7 11 30 1016 10 16.0934 0 0
10:35 pm 22:35 Clear 32 -0.1 25 -4 75 75 S 7 11 29.97 1015 10 16.0934 0 0
10:55 pm 22:55 Clear 32 -0.2 25 -3.9 76 76 S 8 13 29.97 1015 10 16.0934 0 0
11:15 pm 23:15 Clear 33 0.6 25 -3.8 73 73 S 10 17 29.97 1015 10 16.0934 0 0
11:35 pm 23:35 Clear 33 0.5 25 -3.7 74 74 S 8 13 29.94 1014 10 16.0934 0 0
11:55 pm 23:55 Clear 33 0.5 26 -3.5 75 75 S 9 15 29.94 1014 10 16.0934 0 0

Powered by AerisWeather